Home   Weather   Tallahassee   Past weeks

Flag for USA Past Weather in Tallahassee, Florida, USA — Yesterday and Last 2 Weeks

Now
74 °F

Partly sunny.


Feels Like: 76 °F
Forecast: 57 / 74 °F
Wind: 8 mph from South

Location: Tallahassee Regional Airport

Current Time: Dec 4, 2016 at 1:24:57 pm

Latest Report: Dec 4, 2016 at 12:53 pm


Visibility: 10 mi

Pressure: 30.01 "Hg

Humidity: 64%

Dew Point: 61 °F

Location of TallahasseeLocation

Past Weather in Tallahassee — Graph

°F

Tallahassee Temperature Yesterday

Maximum temperature yesterday: 69 °F (at 2:53 pm)
Minimum temperature yesterday: 47 °F (at 12:53 am)
Average temperature yesterday: 60 °F

High & Low Weather Summary for the Past Weeks

 TemperatureHumidityPressure
High80 °F (Nov 24, 1:53 pm)100% (Nov 30, 1:53 am)30.30 "Hg (Nov 30, 1:53 am)
Low31 °F (Nov 21, 6:53 am)10% (Nov 21, 12:53 pm)29.83 "Hg (Nov 29, 1:53 am)
Average60 °F62%30.12 "Hg
* Reported Nov 19 11:53 am — Dec 4 11:53 am, Tallahassee, Weather by CustomWeather, © 2016

Note: Actual official high and low records may vary slightly from our data, if they occured in-between our weather recording intervals... More about our weather records

Advertising

Tallahassee Weather History for the Previous 24 Hours

Scroll right to see more
 ConditionsComfort  
Time TempWeatherWind HumidityBarometerVisibility
11:53 am
Sun, Dec 4
74 °FOvercast.17 mph64%30.04 "Hg10 mi
10:53 am75 °FBroken clouds.16 mph60%30.06 "Hg10 mi
9:53 am66 °FBroken clouds.8 mph70%30.07 "Hg10 mi
8:53 am61 °FMostly cloudy.8 mph81%30.06 "Hg10 mi
7:53 am59 °FPartly sunny.6 mph84%30.06 "Hg10 mi
6:53 am57 °FPassing clouds.9 mph87%30.03 "Hg10 mi
5:53 am58 °FClear.14 mph81%30.03 "Hg10 mi
4:53 am57 °FClear.N/A81%30.05 "Hg10 mi
3:53 am58 °FClear.13 mph78%30.05 "Hg10 mi
2:53 am58 °FPassing clouds.13 mph75%30.08 "Hg10 mi
1:53 am57 °FPassing clouds.14 mph69%30.09 "Hg10 mi
12:53 am58 °FClear.9 mph60%30.12 "Hg10 mi
11:53 pm
Sat, Dec 3
58 °FClear.8 mph56%30.14 "Hg10 mi
10:53 pm59 °FPassing clouds.10 mph49%30.14 "Hg10 mi
9:53 pm60 °FPassing clouds.8 mph44%30.15 "Hg10 mi
8:53 pm61 °FPassing clouds.6 mph42%30.16 "Hg10 mi
7:53 pm62 °FOvercast.9 mph41%30.15 "Hg10 mi
6:53 pm63 °FOvercast.7 mph40%30.14 "Hg10 mi
5:53 pm64 °FPassing clouds.8 mph38%30.13 "Hg10 mi
4:53 pm68 °FPartly sunny.6 mph32%30.12 "Hg10 mi
3:53 pm68 °FPartly sunny.7 mph31%30.11 "Hg10 mi
2:53 pm69 °FPartly sunny.10 mph27%30.11 "Hg10 mi
1:53 pm67 °FBroken clouds.9 mph30%30.13 "Hg10 mi
Weather by CustomWeather, © 2016

See weather overviewHow to use our weather pages